Time,TemperatureF,DewpointF,PressureIn,WindDirection,WindDirectionDegrees,WindSpeedMPH,WindSpeedGustMPH,Humidity,HourlyPrecipIn,Conditions,Clouds,dailyrainin,SoftwareType,DateUTC
2013-03-04 00:00:00,39.2,28.8,29.71,ESE,114,5.8,5.8,66,0.00,CLR,,0.00,WeatherDisplay:10.37,2013-03-04 06:00:00,
2013-03-04 00:05:00,39.2,28.0,29.71,ESE,106,8.1,8.1,64,0.00,CLR,,0.00,WeatherDisplay:10.37,2013-03-04 06:05:00,
2013-03-04 00:10:00,39.2,28.0,29.71,SSE,147,4.6,4.6,64,0.00,CLR,,0.00,WeatherDisplay:10.37,2013-03-04 06:10:00,
2013-03-04 00:15:00,39.4,28.2,29.71,SSE,157,5.8,5.8,64,0.00,CLR,,0.00,WeatherDisplay:10.37,2013-03-04 06:15:00,
2013-03-04 00:20:00,39.4,28.2,29.71,SSE,152,3.5,0.0,64,0.00,CLR,,0.00,WeatherDisplay:10.37,2013-03-04 06:20:00,
2013-03-04 00:25:00,39.4,28.2,29.71,NE,50,3.5,3.5,64,0.00,CLR,,0.00,WeatherDisplay:10.37,2013-03-04 06:25:00,
2013-03-04 00:30:00,39.6,28.4,29.71,ENE,67,3.5,3.5,64,0.00,CLR,,0.00,WeatherDisplay:10.37,2013-03-04 06:30:00,
2013-03-04 00:35:00,39.7,28.5,29.71,ESE,113,3.5,0.0,64,0.00,CLR,,0.00,WeatherDisplay:10.37,2013-03-04 06:35:00,
2013-03-04 00:40:00,39.7,28.5,29.71,ESE,113,0.0,0.0,64,0.00,CLR,,0.00,WeatherDisplay:10.37,2013-03-04 06:40:00,
2013-03-04 00:45:00,39.7,28.5,29.71,East,91,0.0,0.0,64,0.00,CLR,,0.00,WeatherDisplay:10.37,2013-03-04 06:45:00,
2013-03-04 00:50:00,39.6,28.4,29.71,ESE,104,5.8,5.8,64,0.00,CLR,,0.00,WeatherDisplay:10.37,2013-03-04 06:50:00,
2013-03-04 00:55:00,39.6,28.4,29.71,ESE,115,5.8,5.8,64,0.00,CLR,,0.00,WeatherDisplay:10.37,2013-03-04 06:55:00,
2013-03-04 01:00:00,39.6,28.4,29.71,ESE,107,3.5,3.5,64,0.00,CLR,,0.00,WeatherDisplay:10.37,2013-03-04 07:00:00,
2013-03-04 01:05:00,39.6,31.3,29.71,SE,137,2.3,0.0,72,0.00,CLR,,0.00,WeatherDisplay:10.37,2013-03-04 07:05:00,
2013-03-04 01:10:00,39.7,31.4,29.71,ESE,107,0.0,0.0,72,0.00,CLR,,0.00,WeatherDisplay:10.37,2013-03-04 07:10:00,
2013-03-04 01:15:00,39.6,31.3,29.71,ESE,113,4.0,0.0,72,0.00,CLR,,0.00,WeatherDisplay:10.37,2013-03-04 07:15:00,
2013-03-04 01:20:00,39.4,31.1,29.71,ESE,123,3.5,3.5,72,0.00,CLR,,0.00,WeatherDisplay:10.37,2013-03-04 07:20:00,
2013-03-04 01:25:00,39.4,31.1,29.71,East,94,3.5,0.0,72,0.00,CLR,,0.00,WeatherDisplay:10.37,2013-03-04 07:25:00,
2013-03-04 01:30:00,39.4,31.1,29.71,ENE,61,3.5,0.0,72,0.00,CLR,,0.00,WeatherDisplay:10.37,2013-03-04 07:30:00,
2013-03-04 01:35:00,39.4,31.1,29.71,SE,136,3.5,3.5,72,0.00,CLR,,0.00,WeatherDisplay:10.37,2013-03-04 07:35:00,
2013-03-04 01:40:00,39.6,31.3,29.71,SSE,152,3.5,3.5,72,0.00,CLR,,0.00,WeatherDisplay:10.37,2013-03-04 07:40:00,
2013-03-04 01:45:00,39.4,31.1,29.71,SE,132,8.1,8.1,72,0.00,CLR,,0.00,WeatherDisplay:10.37,2013-03-04 07:45:00,
2013-03-04 01:50:00,39.4,31.1,29.71,SE,140,3.5,3.5,72,0.00,CLR,,0.00,WeatherDisplay:10.37,2013-03-04 07:50:00,
2013-03-04 01:55:00,39.4,31.1,29.71,SE,129,2.3,0.0,72,0.00,CLR,,0.00,WeatherDisplay:10.37,2013-03-04 07:55:00,
2013-03-04 02:00:00,39.4,31.1,29.71,ESE,103,3.5,0.0,72,0.00,CLR,,0.00,WeatherDisplay:10.37,2013-03-04 08:00:00,
2013-03-04 02:05:00,39.2,29.9,29.71,East,90,0.0,0.0,69,0.00,CLR,,0.00,WeatherDisplay:10.37,2013-03-04 08:05:00,
2013-03-04 02:10:00,39.0,29.7,29.71,ENE,72,2.3,0.0,69,0.00,CLR,,0.00,WeatherDisplay:10.37,2013-03-04 08:10:00,
2013-03-04 02:15:00,38.8,29.5,29.71,ENE,72,0.0,0.0,69,0.00,CLR,,0.00,WeatherDisplay:10.37,2013-03-04 08:15:00,
2013-03-04 02:20:00,38.7,29.4,29.68,ENE,71,0.0,0.0,69,0.00,CLR,,0.00,WeatherDisplay:10.37,2013-03-04 08:20:00,
2013-03-04 02:25:00,38.3,29.0,29.68,ENE,72,0.0,0.0,69,0.00,CLR,,0.00,WeatherDisplay:10.37,2013-03-04 08:25:00,
2013-03-04 02:30:00,37.9,28.7,29.68,East,100,0.0,0.0,69,0.00,CLR,,0.00,WeatherDisplay:10.37,2013-03-04 08:30:00,
2013-03-04 02:35:00,37.8,28.5,29.68,SE,129,2.3,0.0,69,0.00,CLR,,0.00,WeatherDisplay:10.37,2013-03-04 08:35:00,
2013-03-04 02:40:00,37.6,28.3,29.68,East,97,3.5,0.0,69,0.00,CLR,,0.00,WeatherDisplay:10.37,2013-03-04 08:40:00,
2013-03-04 02:45:00,37.4,28.2,29.68,East,97,0.0,0.0,69,0.00,CLR,,0.00,WeatherDisplay:10.37,2013-03-04 08:45:00,
2013-03-04 02:50:00,37.4,28.2,29.68,East,97,0.0,0.0,69,0.00,CLR,,0.00,WeatherDisplay:10.37,2013-03-04 08:50:00,
2013-03-04 02:55:00,37.0,27.8,29.68,East,97,0.0,0.0,69,0.00,CLR,,0.00,WeatherDisplay:10.37,2013-03-04 08:55:00,
2013-03-04 03:00:00,36.9,27.6,29.68,East,97,0.0,0.0,69,0.00,CLR,,0.00,WeatherDisplay:10.37,2013-03-04 09:00:00,
2013-03-04 03:05:00,36.3,27.1,29.68,East,97,0.0,0.0,69,0.00,CLR,,0.00,WeatherDisplay:10.37,2013-03-04 09:05:00,
2013-03-04 03:10:00,36.0,26.8,29.68,East,97,0.0,0.0,69,0.00,CLR,,0.00,WeatherDisplay:10.37,2013-03-04 09:10:00,
2013-03-04 03:15:00,35.6,26.4,29.68,East,97,0.0,0.0,69,0.00,CLR,,0.00,WeatherDisplay:10.37,2013-03-04 09:15:00,
2013-03-04 03:20:00,35.4,26.3,29.68,East,97,0.0,0.0,69,0.00,CLR,,0.00,WeatherDisplay:10.37,2013-03-04 09:20:00,
2013-03-04 03:25:00,35.2,26.1,29.68,East,97,0.0,0.0,69,0.00,CLR,,0.00,WeatherDisplay:10.37,2013-03-04 09:25:00,
2013-03-04 03:30:00,35.2,26.1,29.68,East,97,0.0,0.0,69,0.00,CLR,,0.00,WeatherDisplay:10.37,2013-03-04 09:30:00,
2013-03-04 03:35:00,35.2,26.1,29.68,East,97,0.0,0.0,69,0.00,CLR,,0.00,WeatherDisplay:10.37,2013-03-04 09:35:00,
2013-03-04 03:40:00,35.2,26.1,29.68,East,97,0.0,0.0,69,0.00,CLR,,0.00,WeatherDisplay:10.37,2013-03-04 09:40:00,
2013-03-04 03:45:00,35.2,26.1,29.68,East,97,0.0,0.0,69,0.00,CLR,,0.00,WeatherDisplay:10.37,2013-03-04 09:45:00,
2013-03-04 03:50:00,35.2,26.1,29.68,ESE,103,3.5,0.0,69,0.00,CLR,,0.00,WeatherDisplay:10.37,2013-03-04 09:50:00,
2013-03-04 03:55:00,35.4,26.3,29.68,NE,44,3.5,0.0,69,0.00,CLR,,0.00,WeatherDisplay:10.37,2013-03-04 09:55:00,
2013-03-04 04:00:00,35.6,26.4,29.68,East,97,2.3,0.0,69,0.00,CLR,,0.00,WeatherDisplay:10.37,2013-03-04 10:00:00,
2013-03-04 04:05:00,35.6,27.5,29.68,ESE,105,0.0,0.0,72,0.00,CLR,,0.00,WeatherDisplay:10.37,2013-03-04 10:05:00,
2013-03-04 04:10:00,35.8,27.6,29.68,ESE,113,4.6,4.6,72,0.00,CLR,,0.00,WeatherDisplay:10.37,2013-03-04 10:10:00,
2013-03-04 04:15:00,36.0,27.8,29.68,ESE,115,0.0,0.0,72,0.00,CLR,,0.00,WeatherDisplay:10.37,2013-03-04 10:15:00,
2013-03-04 04:21:00,36.1,28.0,29.68,ESE,118,5.8,5.8,72,0.00,CLR,,0.00,WeatherDisplay:10.37,2013-03-04 10:21:00,
2013-03-04 04:26:00,36.3,28.2,29.68,East,100,0.0,0.0,72,0.00,CLR,,0.00,WeatherDisplay:10.37,2013-03-04 10:26:00,
2013-03-04 04:31:00,36.3,28.2,29.68,East,100,0.0,0.0,72,0.00,CLR,,0.00,WeatherDisplay:10.37,2013-03-04 10:31:00,
2013-03-04 04:36:00,36.1,28.0,29.68,ENE,66,0.0,0.0,72,0.00,CLR,,0.00,WeatherDisplay:10.37,2013-03-04 10:36:00,
2013-03-04 04:41:00,36.1,28.0,29.68,ENE,66,0.0,0.0,72,0.00,CLR,,0.00,WeatherDisplay:10.37,2013-03-04 10:41:00,
2013-03-04 04:46:00,35.8,27.6,29.68,ENE,66,0.0,0.0,72,0.00,CLR,,0.00,WeatherDisplay:10.37,2013-03-04 10:46:00,
2013-03-04 04:51:00,35.6,27.5,29.68,ENE,66,0.0,0.0,72,0.00,CLR,,0.00,WeatherDisplay:10.37,2013-03-04 10:51:00,
2013-03-04 04:56:00,35.2,27.1,29.68,ENE,67,0.0,0.0,72,0.00,CLR,,0.00,WeatherDisplay:10.37,2013-03-04 10:56:00,
2013-03-04 05:01:00,34.9,26.8,29.68,ENE,66,0.0,0.0,72,0.00,CLR,,0.00,WeatherDisplay:10.37,2013-03-04 11:01:00,
2013-03-04 05:06:00,34.5,26.4,29.68,ENE,66,0.0,0.0,72,0.00,CLR,,0.00,WeatherDisplay:10.37,2013-03-04 11:06:00,
2013-03-04 05:11:00,34.3,26.2,29.68,ENE,66,0.0,0.0,72,0.00,CLR,,0.00,WeatherDisplay:10.37,2013-03-04 11:11:00,
2013-03-04 05:16:00,34.3,26.2,29.68,ENE,66,0.0,0.0,72,0.00,CLR,,0.00,WeatherDisplay:10.37,2013-03-04 11:16:00,
2013-03-04 05:21:00,34.2,26.1,29.68,ENE,66,0.0,0.0,72,0.00,CLR,,0.00,WeatherDisplay:10.37,2013-03-04 11:21:00,
2013-03-04 05:26:00,34.0,25.9,29.68,ENE,67,0.0,0.0,72,0.00,CLR,,0.00,WeatherDisplay:10.37,2013-03-04 11:26:00,
2013-03-04 05:31:00,33.8,25.7,29.68,ENE,67,0.0,0.0,72,0.00,CLR,,0.00,WeatherDisplay:10.37,2013-03-04 11:31:00,
2013-03-04 05:36:00,33.6,25.6,29.71,ENE,67,0.0,0.0,72,0.00,CLR,,0.00,WeatherDisplay:10.37,2013-03-04 11:36:00,
2013-03-04 05:41:00,33.6,25.6,29.71,ENE,66,2.3,0.0,72,0.00,CLR,,0.00,WeatherDisplay:10.37,2013-03-04 11:41:00,
2013-03-04 05:46:00,33.6,25.6,29.71,SE,126,2.3,2.3,72,0.00,CLR,,0.00,WeatherDisplay:10.37,2013-03-04 11:46:00,
2013-03-04 05:51:00,33.6,25.6,29.68,ESE,123,2.3,0.0,72,0.00,CLR,,0.00,WeatherDisplay:10.37,2013-03-04 11:51:00,
2013-03-04 05:56:00,33.6,25.6,29.68,ESE,123,0.0,0.0,72,0.00,CLR,,0.00,WeatherDisplay:10.37,2013-03-04 11:56:00,
2013-03-04 06:01:00,33.6,25.6,29.68,ESE,123,0.0,0.0,72,0.00,CLR,,0.00,WeatherDisplay:10.37,2013-03-04 12:01:00,
2013-03-04 06:06:00,33.6,25.6,29.68,ESE,123,0.0,0.0,72,0.00,CLR,,0.00,WeatherDisplay:10.37,2013-03-04 12:06:00,
2013-03-04 06:11:00,33.6,25.6,29.68,ESE,123,0.0,0.0,72,0.00,CLR,,0.00,WeatherDisplay:10.37,2013-03-04 12:11:00,
2013-03-04 06:16:00,33.4,25.4,29.68,ESE,123,0.0,0.0,72,0.00,CLR,,0.00,WeatherDisplay:10.37,2013-03-04 12:16:00,
2013-03-04 06:21:00,33.4,25.4,29.68,ESE,123,0.0,0.0,72,0.00,CLR,,0.00,WeatherDisplay:10.37,2013-03-04 12:21:00,
2013-03-04 06:26:00,33.3,25.2,29.68,SE,124,3.5,0.0,72,0.00,CLR,,0.00,WeatherDisplay:10.37,2013-03-04 12:26:00,
2013-03-04 06:31:00,33.3,25.2,29.68,SE,126,3.5,3.5,72,0.00,CLR,,0.00,WeatherDisplay:10.37,2013-03-04 12:31:00,
2013-03-04 06:36:00,33.4,25.4,29.68,SE,126,0.0,0.0,72,0.00,CLR,,0.00,WeatherDisplay:10.37,2013-03-04 12:36:00,
2013-03-04 06:41:00,33.6,25.6,29.68,SE,126,2.3,0.0,72,0.00,CLR,,0.00,WeatherDisplay:10.37,2013-03-04 12:41:00,
2013-03-04 06:46:00,33.8,25.7,29.68,SE,145,3.5,3.5,72,0.00,CLR,,0.00,WeatherDisplay:10.37,2013-03-04 12:46:00,
2013-03-04 06:51:00,34.0,25.9,29.68,SE,137,5.8,5.8,72,0.00,CLR,,0.00,WeatherDisplay:10.37,2013-03-04 12:51:00,
2013-03-04 06:56:00,34.3,26.2,29.68,SE,141,3.5,3.5,72,0.00,CLR,,0.00,WeatherDisplay:10.37,2013-03-04 12:56:00,
2013-03-04 07:01:00,34.7,26.6,29.68,SE,144,4.0,4.0,72,0.00,CLR,,0.00,WeatherDisplay:10.37,2013-03-04 13:01:00,
2013-03-04 07:06:00,35.1,26.9,29.68,SE,132,2.3,0.0,72,0.00,CLR,,0.00,WeatherDisplay:10.37,2013-03-04 13:06:00,
2013-03-04 07:11:00,35.2,27.1,29.68,SE,132,0.0,0.0,72,0.00,CLR,,0.00,WeatherDisplay:10.37,2013-03-04 13:11:00,
2013-03-04 07:16:00,35.4,27.3,29.68,SE,139,5.8,5.8,72,0.00,CLR,,0.00,WeatherDisplay:10.37,2013-03-04 13:16:00,
2013-03-04 07:21:00,35.6,27.5,29.68,ESE,105,2.3,0.0,72,0.00,CLR,,0.00,WeatherDisplay:10.37,2013-03-04 13:21:00,
2013-03-04 07:26:00,35.8,27.6,29.68,SE,132,2.3,0.0,72,0.00,CLR,,0.00,WeatherDisplay:10.37,2013-03-04 13:26:00,
2013-03-04 07:31:00,36.0,27.8,29.68,SE,137,3.5,3.5,72,0.00,CLR,,0.00,WeatherDisplay:10.37,2013-03-04 13:31:00,
2013-03-04 07:36:00,36.1,28.0,29.68,SE,137,2.3,0.0,72,0.00,CLR,,0.00,WeatherDisplay:10.37,2013-03-04 13:36:00,
2013-03-04 07:41:00,36.3,28.2,29.68,SE,137,3.5,0.0,72,0.00,CLR,,0.00,WeatherDisplay:10.37,2013-03-04 13:41:00,
2013-03-04 07:46:00,36.7,28.5,29.68,SE,137,2.3,0.0,72,0.00,CLR,,0.00,WeatherDisplay:10.37,2013-03-04 13:46:00,
2013-03-04 07:51:00,36.9,28.7,29.68,SE,137,0.0,0.0,72,0.00,CLR,,0.00,WeatherDisplay:10.37,2013-03-04 13:51:00,
2013-03-04 07:56:00,37.0,28.8,29.68,SE,134,3.5,3.5,72,0.00,CLR,,0.00,WeatherDisplay:10.37,2013-03-04 13:56:00,
2013-03-04 08:01:00,37.2,28.0,29.68,SE,127,3.5,3.5,69,0.00,CLR,,0.00,WeatherDisplay:10.37,2013-03-04 14:01:00,
2013-03-04 08:06:00,37.6,28.3,29.68,South,172,2.3,0.0,69,0.00,CLR,,0.00,WeatherDisplay:10.37,2013-03-04 14:06:00,
2013-03-04 08:11:00,37.9,28.7,29.68,SE,131,3.5,0.0,69,0.00,CLR,,0.00,WeatherDisplay:10.37,2013-03-04 14:11:00,
2013-03-04 08:16:00,38.5,29.2,29.68,ESE,116,2.3,0.0,69,0.00,CLR,,0.00,WeatherDisplay:10.37,2013-03-04 14:16:00,
2013-03-04 08:21:00,38.8,29.5,29.71,SE,133,3.5,3.5,69,0.00,CLR,,0.00,WeatherDisplay:10.37,2013-03-04 14:21:00,
2013-03-04 08:26:00,39.2,29.9,29.71,South,170,5.8,5.8,69,0.00,CLR,,0.00,WeatherDisplay:10.37,2013-03-04 14:26:00,
2013-03-04 08:31:00,39.6,30.2,29.71,ESE,105,2.2,2.2,69,0.00,CLR,,0.00,WeatherDisplay:10.37,2013-03-04 14:31:00,
2013-03-04 08:36:00,39.7,30.4,29.71,SE,133,4.6,4.6,69,0.00,CLR,,0.00,WeatherDisplay:10.37,2013-03-04 14:36:00,
2013-03-04 08:41:00,39.9,30.6,29.71,SSE,153,2.3,0.0,69,0.00,CLR,,0.00,WeatherDisplay:10.37,2013-03-04 14:41:00,
2013-03-04 08:46:00,40.1,30.7,29.71,ESE,122,2.3,2.7,69,0.00,CLR,,0.00,WeatherDisplay:10.37,2013-03-04 14:46:00,
2013-03-04 08:51:00,40.3,30.9,29.71,SE,135,2.3,0.0,69,0.00,CLR,,0.00,WeatherDisplay:10.37,2013-03-04 14:51:00,
2013-03-04 08:56:00,40.5,31.1,29.71,SSW,211,0.0,0.0,69,0.00,CLR,,0.00,WeatherDisplay:10.37,2013-03-04 14:56:00,
2013-03-04 09:01:00,41.0,31.6,29.71,SSE,148,4.0,4.0,69,0.00,CLR,,0.00,WeatherDisplay:10.37,2013-03-04 15:01:00,
2013-03-04 09:06:00,41.4,31.9,29.71,SE,134,5.8,5.8,69,0.00,CLR,,0.00,WeatherDisplay:10.37,2013-03-04 15:06:00,
2013-03-04 09:11:00,41.7,31.2,29.71,South,172,5.8,5.8,66,0.00,CLR,,0.00,WeatherDisplay:10.37,2013-03-04 15:11:00,
2013-03-04 09:16:00,42.1,31.5,29.71,SE,140,3.5,3.5,66,0.00,CLR,,0.00,WeatherDisplay:10.37,2013-03-04 15:16:00,
2013-03-04 09:21:00,42.8,32.2,29.71,SE,140,3.5,3.5,66,0.00,CLR,,0.00,WeatherDisplay:10.37,2013-03-04 15:21:00,
2013-03-04 09:26:00,43.3,32.7,29.71,SSE,153,5.8,5.8,66,0.00,CLR,,0.00,WeatherDisplay:10.37,2013-03-04 15:26:00,
2013-03-04 09:31:00,43.7,33.1,29.71,SE,131,3.5,4.5,66,0.00,CLR,,0.00,WeatherDisplay:10.37,2013-03-04 15:31:00,
2013-03-04 09:36:00,44.2,33.6,29.71,SSE,162,5.8,5.8,66,0.00,CLR,,0.00,WeatherDisplay:10.37,2013-03-04 15:36:00,
2013-03-04 09:41:00,44.6,33.9,29.71,SE,134,5.8,5.8,66,0.00,CLR,,0.00,WeatherDisplay:10.37,2013-03-04 15:41:00,
2013-03-04 09:46:00,44.8,34.1,29.71,SE,135,3.6,3.6,66,0.00,CLR,,0.00,WeatherDisplay:10.37,2013-03-04 15:46:00,
2013-03-04 09:51:00,44.6,33.9,29.71,East,98,3.5,3.5,66,0.00,CLR,,0.00,WeatherDisplay:10.37,2013-03-04 15:51:00,
2013-03-04 09:56:00,44.4,33.8,29.71,East,79,3.5,3.5,66,0.00,CLR,,0.00,WeatherDisplay:10.37,2013-03-04 15:56:00,
2013-03-04 10:01:00,44.4,33.0,29.71,SSE,164,4.0,4.0,64,0.00,BKN,,0.00,WeatherDisplay:10.37,2013-03-04 16:01:00,
2013-03-04 10:06:00,44.2,32.8,29.71,SE,134,3.5,3.5,64,0.00,BKN,,0.00,WeatherDisplay:10.37,2013-03-04 16:06:00,
2013-03-04 10:11:00,44.4,33.0,29.71,ESE,118,3.5,3.5,64,0.00,BKN,,0.00,WeatherDisplay:10.37,2013-03-04 16:11:00,
2013-03-04 10:16:00,44.6,33.2,29.71,ESE,112,3.5,3.5,64,0.00,BKN,,0.00,WeatherDisplay:10.37,2013-03-04 16:16:00,
2013-03-04 10:21:00,44.4,33.0,29.71,NE,36,3.5,0.0,64,0.00,BKN,,0.00,WeatherDisplay:10.37,2013-03-04 16:21:00,
2013-03-04 10:26:00,44.2,32.8,29.71,SE,140,3.5,3.5,64,0.00,BKN,,0.00,WeatherDisplay:10.37,2013-03-04 16:26:00,
2013-03-04 10:31:00,44.2,32.8,29.71,ENE,60,2.3,0.0,64,0.00,BKN,,0.00,WeatherDisplay:10.37,2013-03-04 16:31:00,
2013-03-04 10:36:00,44.6,33.2,29.71,ESE,105,2.3,0.0,64,0.00,BKN,,0.00,WeatherDisplay:10.37,2013-03-04 16:36:00,
2013-03-04 10:41:00,44.8,33.3,29.71,SE,126,3.5,0.0,64,0.00,BKN,,0.00,WeatherDisplay:10.37,2013-03-04 16:41:00,
2013-03-04 10:46:00,45.1,33.7,29.71,South,171,3.5,3.5,64,0.00,BKN,,0.00,WeatherDisplay:10.37,2013-03-04 16:46:00,
2013-03-04 10:51:00,45.5,34.0,29.71,SE,133,5.8,5.8,64,0.00,BKN,,0.00,WeatherDisplay:10.37,2013-03-04 16:51:00,
2013-03-04 10:56:00,45.9,34.4,29.71,SE,133,0.0,0.0,64,0.00,BKN,,0.00,WeatherDisplay:10.37,2013-03-04 16:56:00,
2013-03-04 11:01:00,46.4,32.8,29.71,South,169,3.5,3.5,59,0.00,CLR,,0.00,WeatherDisplay:10.37,2013-03-04 17:01:00,
2013-03-04 11:06:00,47.1,33.5,29.71,SE,144,3.5,3.5,59,0.00,CLR,,0.00,WeatherDisplay:10.37,2013-03-04 17:06:00,
2013-03-04 11:11:00,47.8,34.2,29.71,ESE,111,2.7,0.0,59,0.00,CLR,,0.00,WeatherDisplay:10.37,2013-03-04 17:11:00,
2013-03-04 11:16:00,48.6,34.9,29.71,SW,224,3.5,0.0,59,0.00,CLR,,0.00,WeatherDisplay:10.37,2013-03-04 17:16:00,
2013-03-04 11:21:00,48.7,35.0,29.71,SSW,200,2.3,0.0,59,0.00,CLR,,0.00,WeatherDisplay:10.37,2013-03-04 17:21:00,
2013-03-04 11:26:00,48.9,35.2,29.71,SE,141,3.6,0.0,59,0.00,CLR,,0.00,WeatherDisplay:10.37,2013-03-04 17:26:00,
2013-03-04 11:31:00,49.5,35.7,29.71,SSW,192,2.7,0.0,59,0.00,CLR,,0.00,WeatherDisplay:10.37,2013-03-04 17:31:00,
2013-03-04 11:36:00,50.2,36.4,29.71,WSW,256,4.5,4.5,59,0.00,CLR,,0.00,WeatherDisplay:10.37,2013-03-04 17:36:00,
2013-03-04 11:41:00,50.5,36.7,29.71,West,273,3.5,3.5,59,0.00,CLR,,0.00,WeatherDisplay:10.37,2013-03-04 17:41:00,
2013-03-04 11:46:00,50.5,36.7,29.71,NW,308,3.5,3.5,59,0.00,CLR,,0.00,WeatherDisplay:10.37,2013-03-04 17:46:00,
2013-03-04 11:51:00,50.4,36.6,29.71,WSW,256,3.5,3.5,59,0.00,CLR,,0.00,WeatherDisplay:10.37,2013-03-04 17:51:00,
2013-03-04 11:56:00,50.7,36.9,29.71,West,271,4.6,4.6,59,0.00,CLR,,0.00,WeatherDisplay:10.37,2013-03-04 17:56:00,
2013-03-04 12:01:00,51.3,36.5,29.71,SW,218,3.5,3.5,57,0.00,CLR,,0.00,WeatherDisplay:10.37,2013-03-04 18:01:00,
2013-03-04 12:06:00,51.8,37.0,29.71,WSW,241,3.5,3.5,57,0.00,CLR,,0.00,WeatherDisplay:10.37,2013-03-04 18:06:00,
2013-03-04 12:11:00,52.5,37.7,29.71,North,11,4.6,4.6,57,0.00,CLR,,0.00,WeatherDisplay:10.37,2013-03-04 18:11:00,
2013-03-04 12:16:00,52.7,37.9,29.71,WSW,247,3.6,0.0,57,0.00,CLR,,0.00,WeatherDisplay:10.37,2013-03-04 18:16:00,
2013-03-04 12:21:00,53.1,38.2,29.71,NE,49,5.8,5.8,57,0.00,CLR,,0.00,WeatherDisplay:10.37,2013-03-04 18:21:00,
2013-03-04 12:26:00,52.5,37.7,29.71,NW,306,5.8,5.8,57,0.00,CLR,,0.00,WeatherDisplay:10.37,2013-03-04 18:26:00,
2013-03-04 12:30:00,52.3,37.5,29.71,North,357,8.1,0.0,57,0.00,CLR,,0.00,WeatherDisplay:10.37,2013-03-04 18:30:00,
2013-03-04 12:35:00,52.7,37.9,29.71,NW,319,5.8,0.0,57,0.00,CLR,,0.00,WeatherDisplay:10.37,2013-03-04 18:35:00,
2013-03-04 12:40:00,52.9,38.1,29.71,NW,308,4.6,4.6,57,0.00,CLR,,0.00,WeatherDisplay:10.37,2013-03-04 18:40:00,
2013-03-04 12:45:00,52.7,37.9,29.71,West,273,5.8,5.8,57,0.00,CLR,,0.00,WeatherDisplay:10.37,2013-03-04 18:45:00,
2013-03-04 12:50:00,52.7,37.9,29.71,NNE,19,5.8,5.8,57,0.00,CLR,,0.00,WeatherDisplay:10.37,2013-03-04 18:50:00,
2013-03-04 12:55:00,52.3,37.5,29.71,NW,326,5.8,5.8,57,0.00,CLR,,0.00,WeatherDisplay:10.37,2013-03-04 18:55:00,
2013-03-04 13:00:00,52.0,37.2,29.71,ENE,70,5.8,5.8,57,0.00,CLR,,0.00,WeatherDisplay:10.37,2013-03-04 19:00:00,
2013-03-04 13:05:00,52.0,34.4,29.71,NW,312,4.6,4.6,51,0.00,CLR,,0.00,WeatherDisplay:10.37,2013-03-04 19:05:00,
2013-03-04 13:10:00,52.3,34.7,29.71,WNW,295,4.6,4.6,51,0.00,CLR,,0.00,WeatherDisplay:10.37,2013-03-04 19:10:00,
2013-03-04 13:15:00,52.9,35.2,29.71,NW,315,5.8,5.8,51,0.00,CLR,,0.00,WeatherDisplay:10.37,2013-03-04 19:15:00,
2013-03-04 13:20:00,53.1,35.4,29.71,NNW,331,5.8,5.8,51,0.00,CLR,,0.00,WeatherDisplay:10.37,2013-03-04 19:20:00,
2013-03-04 13:25:00,52.9,35.2,29.71,NW,304,4.6,4.6,51,0.00,CLR,,0.00,WeatherDisplay:10.37,2013-03-04 19:25:00,
2013-03-04 13:30:00,53.1,35.4,29.71,NNW,348,5.8,5.8,51,0.00,CLR,,0.00,WeatherDisplay:10.37,2013-03-04 19:30:00,
2013-03-04 13:35:00,53.1,35.4,29.68,NE,36,5.8,5.8,51,0.00,CLR,,0.00,WeatherDisplay:10.37,2013-03-04 19:35:00,
2013-03-04 13:40:00,52.7,35.1,29.68,NW,309,3.5,0.0,51,0.00,CLR,,0.00,WeatherDisplay:10.37,2013-03-04 19:40:00,
2013-03-04 13:45:00,52.2,34.6,29.68,West,274,5.8,5.8,51,0.00,CLR,,0.00,WeatherDisplay:10.37,2013-03-04 19:45:00,
2013-03-04 13:50:00,52.0,34.4,29.68,NNW,337,5.8,5.8,51,0.00,CLR,,0.00,WeatherDisplay:10.37,2013-03-04 19:50:00,
2013-03-04 13:55:00,52.2,34.6,29.68,WSW,246,4.9,4.9,51,0.00,CLR,,0.00,WeatherDisplay:10.37,2013-03-04 19:55:00,
2013-03-04 14:00:00,52.7,35.1,29.68,NNE,18,5.8,5.8,51,0.00,CLR,,0.00,WeatherDisplay:10.37,2013-03-04 20:00:00,
2013-03-04 14:05:00,53.2,37.0,29.68,NE,43,9.2,9.2,54,0.00,CLR,,0.00,WeatherDisplay:10.37,2013-03-04 20:05:00,
2013-03-04 14:10:00,53.6,37.3,29.68,North,350,5.8,5.8,54,0.00,CLR,,0.00,WeatherDisplay:10.37,2013-03-04 20:10:00,
2013-03-04 14:15:00,53.8,37.5,29.68,WNW,303,3.5,0.0,54,0.00,CLR,,0.00,WeatherDisplay:10.37,2013-03-04 20:15:00,
2013-03-04 14:20:00,54.0,37.7,29.71,NE,34,5.8,5.8,54,0.00,CLR,,0.00,WeatherDisplay:10.37,2013-03-04 20:20:00,
2013-03-04 14:25:00,53.6,37.3,29.71,NNW,339,6.3,6.3,54,0.00,CLR,,0.00,WeatherDisplay:10.37,2013-03-04 20:25:00,
2013-03-04 14:30:00,53.6,37.3,29.71,North,1,4.6,4.6,54,0.00,CLR,,0.00,WeatherDisplay:10.37,2013-03-04 20:30:00,
2013-03-04 14:35:00,54.0,37.7,29.71,North,6,5.8,5.8,54,0.00,CLR,,0.00,WeatherDisplay:10.37,2013-03-04 20:35:00,
2013-03-04 14:40:00,54.5,38.2,29.71,NNE,18,3.5,4.0,54,0.00,CLR,,0.00,WeatherDisplay:10.37,2013-03-04 20:40:00,
2013-03-04 14:45:00,54.9,38.5,29.71,NNE,26,3.5,3.5,54,0.00,CLR,,0.00,WeatherDisplay:10.37,2013-03-04 20:45:00,
2013-03-04 14:50:00,55.0,38.7,29.71,North,357,5.8,5.8,54,0.00,CLR,,0.00,WeatherDisplay:10.37,2013-03-04 20:50:00,
2013-03-04 14:55:00,54.5,38.2,29.71,North,6,8.3,8.3,54,0.00,CLR,,0.00,WeatherDisplay:10.37,2013-03-04 20:55:00,
2013-03-04 15:00:00,53.8,37.5,29.71,North,350,5.8,5.8,54,0.00,CLR,,0.00,WeatherDisplay:10.37,2013-03-04 21:00:00,
2013-03-04 15:05:00,53.1,36.8,29.71,NE,41,8.0,8.0,54,0.00,CLR,,0.00,WeatherDisplay:10.37,2013-03-04 21:05:00,
2013-03-04 15:10:00,52.7,36.5,29.71,NNE,32,5.8,6.7,54,0.00,CLR,,0.00,WeatherDisplay:10.37,2013-03-04 21:10:00,
2013-03-04 15:15:00,52.5,36.3,29.71,NNE,31,9.2,9.2,54,0.00,SCT,,0.00,WeatherDisplay:10.37,2013-03-04 21:15:00,
2013-03-04 15:20:00,52.7,36.5,29.71,NE,50,10.4,10.4,54,0.00,SCT,,0.00,WeatherDisplay:10.37,2013-03-04 21:20:00,
2013-03-04 15:25:00,52.7,36.5,29.71,NNE,30,5.8,5.8,54,0.00,SCT,,0.00,WeatherDisplay:10.37,2013-03-04 21:25:00,
2013-03-04 15:30:00,52.5,36.3,29.71,NNW,345,6.9,7.6,54,0.00,SCT,,0.00,WeatherDisplay:10.37,2013-03-04 21:30:00,
2013-03-04 15:35:00,52.2,36.0,29.71,NNE,12,10.4,10.4,54,0.00,SCT,,0.00,WeatherDisplay:10.37,2013-03-04 21:35:00,
2013-03-04 15:40:00,51.8,35.7,29.71,NE,48,9.2,9.2,54,0.00,SCT,,0.00,WeatherDisplay:10.37,2013-03-04 21:40:00,
2013-03-04 15:45:00,51.6,35.5,29.71,North,1,8.1,8.1,54,0.00,SCT,,0.00,WeatherDisplay:10.37,2013-03-04 21:45:00,
2013-03-04 15:50:00,51.6,35.5,29.71,NNE,26,8.1,8.1,54,0.00,SCT,,0.00,WeatherDisplay:10.37,2013-03-04 21:50:00,
2013-03-04 15:55:00,51.4,35.3,29.71,NE,42,5.8,5.8,54,0.00,SCT,,0.00,WeatherDisplay:10.37,2013-03-04 21:55:00,
2013-03-04 16:00:00,51.1,35.0,29.71,NE,42,9.2,9.2,54,0.00,SCT,,0.00,WeatherDisplay:10.37,2013-03-04 22:00:00,
2013-03-04 16:05:00,50.7,35.6,29.74,NNE,27,8.1,8.1,56,0.00,BKN,,0.00,WeatherDisplay:10.37,2013-03-04 22:05:00,
2013-03-04 16:10:00,50.4,35.2,29.74,NNE,28,11.5,11.5,56,0.00,BKN,,0.00,WeatherDisplay:10.37,2013-03-04 22:10:00,
2013-03-04 16:15:00,50.2,35.1,29.74,NE,39,3.5,4.9,56,0.00,BKN,,0.00,WeatherDisplay:10.37,2013-03-04 22:15:00,
2013-03-04 16:20:00,50.0,34.9,29.74,NE,44,5.8,6.3,56,0.00,BKN,,0.00,WeatherDisplay:10.37,2013-03-04 22:20:00,
2013-03-04 16:26:00,49.8,34.7,29.74,North,7,3.5,3.6,56,0.00,BKN,,0.00,WeatherDisplay:10.37,2013-03-04 22:26:00,
2013-03-04 16:31:00,50.0,34.9,29.74,North,352,3.5,3.5,56,0.00,BKN,,0.00,WeatherDisplay:10.37,2013-03-04 22:31:00,
2013-03-04 16:36:00,50.0,34.9,29.74,NE,42,5.8,5.8,56,0.00,BKN,,0.00,WeatherDisplay:10.37,2013-03-04 22:36:00,
2013-03-04 16:41:00,50.0,34.9,29.74,NE,40,5.8,5.8,56,0.00,BKN,,0.00,WeatherDisplay:10.37,2013-03-04 22:41:00,
2013-03-04 16:46:00,49.8,34.7,29.74,NNE,28,10.5,10.5,56,0.00,BKN,,0.00,WeatherDisplay:10.37,2013-03-04 22:46:00,
2013-03-04 16:51:00,49.5,34.4,29.77,NE,47,3.5,3.5,56,0.00,BKN,,0.00,WeatherDisplay:10.37,2013-03-04 22:51:00,
2013-03-04 16:56:00,49.3,34.2,29.77,NE,47,5.8,5.8,56,0.00,BKN,,0.00,WeatherDisplay:10.37,2013-03-04 22:56:00,
2013-03-04 17:01:00,49.1,34.9,29.77,ENE,61,5.8,5.8,58,0.00,CLR,,0.00,WeatherDisplay:10.37,2013-03-04 23:01:00,
2013-03-04 17:06:00,48.7,34.6,29.77,NNE,18,9.2,9.2,58,0.00,CLR,,0.00,WeatherDisplay:10.37,2013-03-04 23:06:00,
2013-03-04 17:11:00,48.6,34.4,29.77,NNE,25,4.6,4.6,58,0.00,CLR,,0.00,WeatherDisplay:10.37,2013-03-04 23:11:00,
2013-03-04 17:16:00,48.4,34.3,29.77,NE,36,5.8,5.8,58,0.00,CLR,,0.00,WeatherDisplay:10.37,2013-03-04 23:16:00,
2013-03-04 17:21:00,48.0,33.9,29.77,NNE,22,8.1,8.1,58,0.00,CLR,,0.00,WeatherDisplay:10.37,2013-03-04 23:21:00,
2013-03-04 17:26:00,47.7,33.6,29.77,North,11,5.8,5.8,58,0.00,CLR,,0.00,WeatherDisplay:10.37,2013-03-04 23:26:00,
2013-03-04 17:31:00,47.5,33.4,29.77,North,9,3.5,4.0,58,0.00,CLR,,0.00,WeatherDisplay:10.37,2013-03-04 23:31:00,
2013-03-04 17:36:00,47.1,33.1,29.80,North,1,6.9,6.9,58,0.00,CLR,,0.00,WeatherDisplay:10.37,2013-03-04 23:36:00,
2013-03-04 17:41:00,47.1,33.1,29.80,North,357,5.8,5.8,58,0.00,CLR,,0.00,WeatherDisplay:10.37,2013-03-04 23:41:00,
2013-03-04 17:46:00,46.9,32.9,29.80,North,7,5.8,5.8,58,0.00,CLR,,0.00,WeatherDisplay:10.37,2013-03-04 23:46:00,
2013-03-04 17:51:00,46.9,32.9,29.83,NE,38,5.8,5.8,58,0.00,CLR,,0.00,WeatherDisplay:10.37,2013-03-04 23:51:00,
2013-03-04 17:56:00,46.8,32.8,29.83,WNW,296,4.6,4.6,58,0.00,CLR,,0.00,WeatherDisplay:10.37,2013-03-04 23:56:00,
2013-03-04 18:01:00,46.6,34.2,29.83,North,357,3.5,3.5,62,0.00,BKN,,0.00,WeatherDisplay:10.37,2013-03-05 00:01:00,
2013-03-04 18:06:00,46.6,34.2,29.85,NNE,22,3.5,3.5,62,0.00,BKN,,0.00,WeatherDisplay:10.37,2013-03-05 00:06:00,
2013-03-04 18:11:00,46.6,34.2,29.85,NNW,342,5.8,5.8,62,0.00,BKN,,0.00,WeatherDisplay:10.37,2013-03-05 00:11:00,
2013-03-04 18:16:00,46.4,34.1,29.85,NNE,24,8.1,8.1,62,0.00,BKN,,0.00,WeatherDisplay:10.37,2013-03-05 00:16:00,
2013-03-04 18:21:00,46.0,33.7,29.85,NNE,20,5.8,5.8,62,0.00,BKN,,0.00,WeatherDisplay:10.37,2013-03-05 00:21:00,
2013-03-04 18:26:00,45.9,33.6,29.85,NNE,20,5.8,5.8,62,0.00,BKN,,0.00,WeatherDisplay:10.37,2013-03-05 00:26:00,
2013-03-04 18:31:00,45.5,33.2,29.85,NNW,329,5.8,5.8,62,0.00,BKN,,0.00,WeatherDisplay:10.37,2013-03-05 00:31:00,
2013-03-04 18:36:00,45.3,33.1,29.88,NW,313,5.8,5.8,62,0.00,BKN,,0.00,WeatherDisplay:10.37,2013-03-05 00:36:00,
2013-03-04 18:41:00,45.1,32.9,29.88,West,267,8.1,8.1,62,0.00,BKN,,0.00,WeatherDisplay:10.37,2013-03-05 00:41:00,
2013-03-04 18:46:00,44.8,32.5,29.88,North,357,12.7,12.7,62,0.00,BKN,,0.00,WeatherDisplay:10.37,2013-03-05 00:46:00,
2013-03-04 18:51:00,44.4,32.2,29.88,North,357,5.8,5.8,62,0.00,BKN,,0.00,WeatherDisplay:10.37,2013-03-05 00:51:00,
2013-03-04 18:56:00,43.9,31.7,29.88,NNE,20,3.5,3.5,62,0.00,BKN,,0.00,WeatherDisplay:10.37,2013-03-05 00:56:00,
2013-03-04 19:01:00,43.3,31.2,29.88,South,189,7.6,7.6,62,0.00,BKN,,0.00,WeatherDisplay:10.37,2013-03-05 01:01:00,
2013-03-04 19:06:00,43.0,30.8,29.88,WNW,293,5.8,5.8,62,0.00,BKN,,0.00,WeatherDisplay:10.37,2013-03-05 01:06:00,
2013-03-04 19:11:00,42.4,30.3,29.88,North,1,5.8,5.8,62,0.00,OVC,,0.00,WeatherDisplay:10.37,2013-03-05 01:11:00,
2013-03-04 19:16:00,42.3,30.2,29.88,NW,317,8.1,8.1,62,0.00,OVC,,0.00,WeatherDisplay:10.37,2013-03-05 01:16:00,
2013-03-04 19:21:00,42.1,30.0,29.91,NNE,26,5.8,5.8,62,0.00,OVC,,0.00,WeatherDisplay:10.37,2013-03-05 01:21:00,
2013-03-04 19:26:00,41.9,29.8,29.91,WSW,256,5.8,5.8,62,0.00,OVC,,0.00,WeatherDisplay:10.37,2013-03-05 01:26:00,
2013-03-04 19:31:00,41.7,29.6,29.91,NW,311,8.1,8.1,62,0.00,OVC,,0.00,WeatherDisplay:10.37,2013-03-05 01:31:00,
2013-03-04 19:36:00,41.5,29.5,29.91,NNE,13,5.8,5.8,62,0.00,OVC,,0.00,WeatherDisplay:10.37,2013-03-05 01:36:00,
2013-03-04 19:41:00,41.5,29.5,29.91,NNE,27,5.8,5.8,62,0.00,OVC,,0.00,WeatherDisplay:10.37,2013-03-05 01:41:00,
2013-03-04 19:46:00,41.5,29.5,29.91,NW,311,5.8,5.8,62,0.00,OVC,,0.00,WeatherDisplay:10.37,2013-03-05 01:46:00,
2013-03-04 19:51:00,41.4,29.3,29.91,NW,305,7.6,7.6,62,0.00,OVC,,0.00,WeatherDisplay:10.37,2013-03-05 01:51:00,
2013-03-04 19:56:00,41.2,29.1,29.91,NNE,12,5.8,5.8,62,0.00,OVC,,0.00,WeatherDisplay:10.37,2013-03-05 01:56:00,
2013-03-04 20:01:00,41.2,31.0,29.91,NNW,333,5.8,5.8,67,0.00,BKN,,0.00,WeatherDisplay:10.37,2013-03-05 02:01:00,
2013-03-04 20:06:00,41.2,31.0,29.94,WNW,299,5.8,5.8,67,0.00,BKN,,0.00,WeatherDisplay:10.37,2013-03-05 02:06:00,
2013-03-04 20:11:00,41.0,30.9,29.94,North,354,5.4,5.4,67,0.00,BKN,,0.00,WeatherDisplay:10.37,2013-03-05 02:11:00,
2013-03-04 20:16:00,41.0,30.9,29.94,NW,314,8.1,8.1,67,0.00,BKN,,0.00,WeatherDisplay:10.37,2013-03-05 02:16:00,
2013-03-04 20:21:00,40.8,30.7,29.94,WSW,257,5.8,5.8,67,0.00,BKN,,0.00,WeatherDisplay:10.37,2013-03-05 02:21:00,
2013-03-04 20:26:00,40.6,30.5,29.94,WNW,294,5.8,6.3,67,0.00,BKN,,0.00,WeatherDisplay:10.37,2013-03-05 02:26:00,
2013-03-04 20:31:00,40.5,30.4,29.94,NNW,332,8.1,8.1,67,0.00,BKN,,0.00,WeatherDisplay:10.37,2013-03-05 02:31:00,
2013-03-04 20:36:00,40.1,30.0,29.94,North,357,6.3,6.3,67,0.00,BKN,,0.00,WeatherDisplay:10.37,2013-03-05 02:36:00,
2013-03-04 20:41:00,39.9,29.8,29.94,NE,37,5.8,5.8,67,0.00,BKN,,0.00,WeatherDisplay:10.37,2013-03-05 02:41:00,
2013-03-04 20:46:00,39.6,29.5,29.94,WNW,303,3.5,3.6,67,0.00,BKN,,0.00,WeatherDisplay:10.37,2013-03-05 02:46:00,
2013-03-04 20:51:00,39.4,29.3,29.97,WNW,303,5.8,5.8,67,0.00,BKN,,0.00,WeatherDisplay:10.37,2013-03-05 02:51:00,
2013-03-04 20:56:00,39.2,29.2,29.97,ENE,59,6.3,6.3,67,0.00,BKN,,0.00,WeatherDisplay:10.37,2013-03-05 02:56:00,
2013-03-04 21:01:00,39.2,31.3,29.97,NE,41,8.1,8.1,73,0.00,-RA,,0.00,WeatherDisplay:10.37,2013-03-05 03:01:00,
2013-03-04 21:06:00,39.0,31.1,29.97,NNW,331,5.8,5.8,73,0.00,-RA,,0.00,WeatherDisplay:10.37,2013-03-05 03:06:00,
2013-03-04 21:11:00,38.8,30.9,29.97,NNW,343,8.1,8.1,73,0.00,-RA,,0.00,WeatherDisplay:10.37,2013-03-05 03:11:00,
2013-03-04 21:16:00,38.8,30.9,29.97,North,357,3.5,0.0,73,0.00,-RA,,0.00,WeatherDisplay:10.37,2013-03-05 03:16:00,
2013-03-04 21:22:00,38.7,30.7,29.97,North,1,6.3,6.3,73,0.00,-RA,,0.00,WeatherDisplay:10.37,2013-03-05 03:22:00,
2013-03-04 21:27:00,38.7,30.7,29.97,North,1,6.9,6.9,73,0.00,-RA,,0.00,WeatherDisplay:10.37,2013-03-05 03:27:00,
2013-03-04 21:32:00,38.8,30.9,29.97,NNE,22,5.8,5.8,73,0.00,-RA,,0.00,WeatherDisplay:10.37,2013-03-05 03:32:00,
2013-03-04 21:37:00,38.8,30.9,30.00,WNW,298,5.8,5.8,73,0.00,-RA,,0.00,WeatherDisplay:10.37,2013-03-05 03:37:00,
2013-03-04 21:42:00,38.7,30.7,30.00,NNW,328,6.9,6.9,73,0.00,-RA,,0.00,WeatherDisplay:10.37,2013-03-05 03:42:00,
2013-03-04 21:47:00,38.7,30.7,30.00,North,1,4.6,4.6,73,0.00,-RA,,0.00,WeatherDisplay:10.37,2013-03-05 03:47:00,
2013-03-04 21:52:00,38.7,30.7,30.00,NNE,29,5.8,5.8,73,0.00,-RA,,0.00,WeatherDisplay:10.37,2013-03-05 03:52:00,
2013-03-04 21:57:00,38.5,30.6,30.00,NNW,338,5.8,5.8,73,0.00,-RA,,0.00,WeatherDisplay:10.37,2013-03-05 03:57:00,
2013-03-04 22:02:00,38.5,30.6,30.00,WNW,285,5.8,5.8,73,0.00,-RA,,0.00,WeatherDisplay:10.37,2013-03-05 04:02:00,
2013-03-04 22:07:00,38.5,30.6,30.03,NNE,26,4.9,4.9,73,0.00,-RA,,0.00,WeatherDisplay:10.37,2013-03-05 04:07:00,
2013-03-04 22:12:00,38.3,32.4,30.03,NW,317,5.8,5.8,79,0.00,OVC,,0.00,WeatherDisplay:10.37,2013-03-05 04:12:00,
2013-03-04 22:17:00,38.3,32.4,30.03,North,1,5.8,5.8,79,0.00,OVC,,0.00,WeatherDisplay:10.37,2013-03-05 04:17:00,
2013-03-04 22:22:00,38.3,32.4,30.03,WNW,302,5.8,5.8,79,0.00,OVC,,0.00,WeatherDisplay:10.37,2013-03-05 04:22:00,
2013-03-04 22:27:00,38.1,32.2,30.03,WNW,301,6.7,6.7,79,0.00,OVC,,0.00,WeatherDisplay:10.37,2013-03-05 04:27:00,
2013-03-04 22:32:00,38.1,32.2,30.03,NNE,23,5.4,5.4,79,0.00,OVC,,0.00,WeatherDisplay:10.37,2013-03-05 04:32:00,
2013-03-04 22:37:00,38.1,32.2,30.03,WNW,303,3.6,3.6,79,0.00,OVC,,0.00,WeatherDisplay:10.37,2013-03-05 04:37:00,
2013-03-04 22:42:00,38.1,32.2,30.03,WNW,299,3.5,3.5,79,0.00,OVC,,0.00,WeatherDisplay:10.37,2013-03-05 04:42:00,
2013-03-04 22:47:00,38.3,32.4,30.03,North,350,9.2,9.2,79,0.00,OVC,,0.00,WeatherDisplay:10.37,2013-03-05 04:47:00,
2013-03-04 22:52:00,38.3,32.4,30.03,NNE,32,10.4,10.4,79,0.00,OVC,,0.00,WeatherDisplay:10.37,2013-03-05 04:52:00,
2013-03-04 22:57:00,38.5,32.5,30.03,NW,311,8.1,8.1,79,0.00,OVC,,0.00,WeatherDisplay:10.37,2013-03-05 04:57:00,
2013-03-04 23:00:00,38.5,32.5,30.03,NNE,14,5.0,9.0,79,0.00,OVC,,0.00,WeatherDisplay:10.37,2013-03-05 05:00:00,
2013-03-04 23:05:00,38.5,31.2,30.00,North,349,8.1,8.1,75,0.00,OVC,,0.00,WeatherDisplay:10.37,2013-03-05 05:05:00,
2013-03-04 23:10:00,38.3,31.1,30.00,North,352,8.1,8.1,75,0.00,OVC,,0.00,WeatherDisplay:10.37,2013-03-05 05:10:00,
2013-03-04 23:15:00,38.3,31.1,30.00,NE,43,8.1,8.1,75,0.00,OVC,,0.00,WeatherDisplay:10.37,2013-03-05 05:15:00,
2013-03-04 23:20:00,38.1,30.9,30.00,West,276,6.7,6.7,75,0.00,OVC,,0.00,WeatherDisplay:10.37,2013-03-05 05:20:00,
2013-03-04 23:25:00,38.1,30.9,30.00,North,349,5.8,5.8,75,0.00,OVC,,0.00,WeatherDisplay:10.37,2013-03-05 05:25:00,
2013-03-04 23:30:00,37.9,30.7,30.00,NNW,342,4.6,4.6,75,0.00,OVC,,0.00,WeatherDisplay:10.37,2013-03-05 05:30:00,
2013-03-04 23:35:00,37.8,30.5,30.03,NNW,328,3.5,3.5,75,0.00,OVC,,0.00,WeatherDisplay:10.37,2013-03-05 05:35:00,
2013-03-04 23:40:00,37.6,30.4,30.03,SW,235,5.8,5.8,75,0.00,OVC,,0.00,WeatherDisplay:10.37,2013-03-05 05:40:00,
2013-03-04 23:45:00,37.6,30.4,30.03,North,6,8.1,8.1,75,0.00,OVC,,0.00,WeatherDisplay:10.37,2013-03-05 05:45:00,
2013-03-04 23:50:00,37.6,30.4,30.03,North,352,8.1,8.1,75,0.00,OVC,,0.00,WeatherDisplay:10.37,2013-03-05 05:50:00,
2013-03-04 23:55:00,37.4,30.2,30.03,NNE,27,3.6,3.6,75,0.00,OVC,,0.00,WeatherDisplay:10.37,2013-03-05 05:55:00,